Location: DaVinci Observatory
(43.1080°N, 78.6453°W)
Time: 03:58:39
(UTC-04:00)

Envisat - Pass Details

Date: 14 October 2017
Orbit: 764 x 766 km, 98.2° (Epoch: 21 October)

Event Time Altitude Azimuth Distance (km) Brightness Sun altitude
Exits shadow 22:00:13 25° 287° (WNW) 1,530 5.0 -37.7°
Drops below altitude 10° 22:03:21 10° 323° (NW) 2,309 6.1 -38.2°
Sets 22:06:01 0° 336° (NNW) 3,240 6.9 -38.6°
